Location: Cuiabá
(15.6014°S, 56.0979°W)
Time: 02:56:50
(UTC-04:00)

ISS - Visible Passes

Search period start: 08 December 2023 00:00
Search period end: 18 December 2023 00:00
Orbit: 415 x 417 km, 51.6° (Epoch: 08 December)

Date Brightness Start Highest point End Pass type
(mag) Time Alt. Az. Time Alt. Az. Time Alt. Az.
08 Dec -2.7 18:56:38 10° N 18:59:24 24° NE 19:01:08 16° E visible
08 Dec -0.3 20:34:18 10° WSW 20:34:36 11° WSW 20:34:36 11° WSW visible
09 Dec -1.5 19:44:25 10° WNW 19:47:18 27° SW 19:50:14 10° S visible
10 Dec -3.3 18:55:19 10° NW 18:58:38 64° SW 19:01:58 10° SSE visible
12 Dec -1.5 03:59:26 10° SSW 04:02:25 29° SE 04:05:22 10° ENE visible
12 Dec -0.4 18:55:54 10° W 18:57:56 15° SW 18:59:59 10° S visible
13 Dec -0.4 03:11:43 10° SSE 03:13:37 14° SE 03:15:29 10° E visible
14 Dec -3.7 03:58:15 10° SW 04:01:33 53° NW 04:04:48 10° NNE visible
